Regional Weather Roundup
Issued by NWS

Home | Current Version | Previous Version | Graphics & Text | Print | Product List | Glossary On
Versions: 1 2 3 4 5 6 7 8 9 10 11 12 13 14 15 16 17 18 19 20 21 22 23 24 25 26 27 28 29 30 31 32 33 34 35 36 37 38 39 40 41 42 43 44 45 46 47 48 49 50
000
ASUS43 KIND 222109
RWRIN

WEATHER ROUNDUP FOR INDIANA
NATIONAL WEATHER SERVICE INDIANAPOLIS IN
500 PM EDT SAT JUL 22 2017

NOTE: "FAIR" INDICATES FEW OR NO CLOUDS BELOW 12,000 FEET WITH NO
SIGNIFICANT WEATHER AND/OR OBSTRUCTIONS TO VISIBILITY.

* - STATION DOES NOT REPORT WEATHER SUCH AS PRECIPITATION OR FOG.

+ - STATION NOT QUALITY CONTROLLED BY THE NATIONAL WEATHER SERVICE.
    USE DATA WITH CAUTION...ESPECIALLY DEWPOINT AND RELATIVE
    HUMIDITY OBSERVATIONS.

INZ001>003-010>013-019-020-222200-
NORTHWEST INDIANA

CITY           SKY/WX    TMP DP  RH WIND       PRES   REMARKS
GARY /AIRPORT/ PTSUNNY   82  70  65 NE7       29.82F
KNOX *+        SUNNY     81  70  69 NW6       29.82S
LA PORTE +     SUNNY     81  70  68 N8        29.83F
MICHIGAN CITY+ MOSUNNY   81  68  65 NW5       29.83S
MONTICELLO +   PTSUNNY   82  72  71 W7        29.82S
RENSSELAER +   PTSUNNY   81  70  69 W6        29.83S
VALPARAISO     MOSUNNY   85  72  65 VRB5      29.83S

$$

LMZ046-743>745-222200-
SOUTHERN LAKE MICHIGAN

STATION/POSITION TIME  TEMP    WIND        PRES    WAVE
                       AIR SEA DIR/SP/G            HT
                 (UTC) (F)     (DEG/KT/KT) (MB)    (FT)
BURNS HARBOR     2040   77      60/  5/  6 1010.5F
MICHIGAN CITY    2040   77     220/  1/  1   N/A
5NW MICH CITY    2100   76 77  160/  2/  2   N/A     1

$$

INZ004-005-014>016-021>024-222200-
NORTH CENTRAL INDIANA

CITY           SKY/WX    TMP DP  RH WIND       PRES   REMARKS
ELKHART        MOSUNNY   81  68  65 NW13      29.81
GOSHEN         MOSUNNY   84  68  58 W13       29.80S
LOGANSPORT +   MOSUNNY   81  70  69 NW6       29.84F
PERU/GRISSOM   MOSUNNY   83  71  66 W12       29.82F
ROCHESTER +    MOSUNNY   84  70  61 NW8       29.83S
SOUTH BEND     MOSUNNY   80  69  69 W13       29.83S
WARSAW +       PTSUNNY   82  70  65 W9        29.82R

$$

INZ006>009-017-018-025>027-222200-
NORTHEAST INDIANA

CITY           SKY/WX    TMP DP  RH WIND       PRES   REMARKS
AUBURN +       MOSUNNY   84  66  54 W10       29.81R
FORT WAYNE     PTSUNNY   85  71  63 W9        29.81S
HUNTINGTON +   PTSUNNY   82  71  69 W8        29.82S
KENDALLVILLE + MOSUNNY   83  69  62 NW7       29.81S

$$

INZ028-029-035-036-043>045-051>053-222200-
WEST CENTRAL INDIANA

CITY           SKY/WX    TMP DP  RH WIND       PRES   REMARKS
GREENCASTLE +  CLOUDY    86  72  62 N3        29.84S
LAFAYETTE      PTSUNNY   84  74  71 W7        29.82S
TERRE HAUTE    MOSUNNY   91  77  63 N3        29.81F HX 104

$$

INZ030>032-037>040-046>048-054>057-064-065-222200-
CENTRAL INDIANA

CITY           SKY/WX    TMP DP  RH WIND       PRES   REMARKS
CP ATTERBURY + CLOUDY    91  72  52 N5        29.83S HX  98
COLUMBUS       MOSUNNY   91  68  46 W8        29.82S HX  95
FRANKFORT +    CLOUDY    86  75  69 NW3       29.86S HX  95
GREENWOOD *+   PTSUNNY  N/A N/A N/A NW12G17   29.84S
INDIANAPOLIS   PTSUNNY   89  71  55 NW13      29.82F HX  95
-EAGLE CREEK   CLOUDY    87  72  60 NW9       29.82F
KOKOMO +       MOSUNNY   83  72  69 W10       29.84F
MT COMFORT *+  CLOUDY    86  72  62 NW9       29.84F
SHELBYVILLE    CLOUDY    90  71  53 NW8       29.82F HX  96
ZIONSVILLE +   CLOUDY    84  73  69 W8        29.86S

$$

INZ033-034-041-042-049-050-058-059-222200-
EAST CENTRAL INDIANA

CITY           SKY/WX    TMP DP  RH WIND       PRES   REMARKS
MUNCIE         PTSUNNY   86  72  62 W8        29.84F
RICHMOND +     PTSUNNY   86  73  66 W17       29.84F

$$

INZ060-061-067>069-081>083-085>088-222200-
SOUTHWEST INDIANA

CITY           SKY/WX    TMP DP  RH WIND       PRES   REMARKS
EVANSVILLE     SUNNY     97  71  42 SW22G35   29.79F HX 104
HUNTINGBURG *+ SUNNY     96  76  52 SW15      29.82R HX 109

$$

INZ062-063-066-070>080-084-089>092-222200-
SOUTH CENTRAL AND SOUTHEAST INDIANA

CITY           SKY/WX    TMP DP  RH WIND       PRES   REMARKS
BEDFORD +      MOSUNNY   95  68  41 SW13G21   29.82S HX  99
BLOOMINGTON    MOSUNNY   94  71  47 W16G23    29.83S HX 101
MADISON *+     CLOUDY    93  72  49 W5        29.85S HX 100
NORTH VERNON + CLOUDY    86  75  70 W7        29.84F HX  95
SEYMOUR +      CLOUDY    95  73  49 W9        29.81F HX 105

$$





USA.gov is the U.S. government's official web portal to all federal, state and local government web resources and services.